Regional Weather Roundup
Issued by NWS

Home | Current Version | Previous Version | Text Only | Print | Product List | Glossary Off
Versions: 1 2 3 4 5 6 7 8 9 10 11 12 13 14 15 16 17 18 19 20 21 22 23 24 25 26 27 28 29 30 31 32 33 34 35 36 37 38 39 40 41 42 43 44 45 46 47 48 49 50

000
ASUS43 KOAX 010010
RWRNE

WEATHER ROUNDUP FOR NEBRASKA
NATIONAL WEATHER SERVICE OMAHA NE
700 PM CDT TUE JUN 30 2015

NOTES: SATELLITE DATA IS BEING USED TO AUGMENT CLOUD COVER ABOVE
       12000 FEET.
       "FAIR" INDICATES FEW OR NO CLOUDS BELOW 12,000 FEET WITH NO
       SIGNIFICANT WEATHER AND/OR OBSTRUCTIONS TO VISIBILITY.

  * THESE STATIONS DO NOT REPORT WEATHER SUCH AS RAIN...SNOW OR FOG.

NEZ001>004-019>022-054>056-010100-
NEBRASKA PANHANDLE

CITY           SKY/WX    TMP DP  RH WIND       PRES   REMARKS
SCOTTSBLUFF    MOSUNNY   95  53  24 W6        29.90F HX  92
6HR MIN TEMP:  88; 6HR MAX TEMP:  99;

ALLIANCE       PTSUNNY   87  63  44 S6        29.89F
6HR MIN TEMP:  87; 6HR MAX TEMP:  94;

CHADRON        MOSUNNY   90  63  40 NW6       29.87S HX  91
6HR MIN TEMP:  82; 6HR MAX TEMP:  96;

KIMBALL          N/A    N/A N/A N/A MISG        N/A
SIDNEY         PTSUNNY   89  56  32 S8        29.96F
6HR MIN TEMP:  88; 6HR MAX TEMP:  94;

$$

NEZ057>060-069>072-079>082-010100-
SOUTHWEST NEBRASKA

CITY           SKY/WX    TMP DP  RH WIND       PRES   REMARKS
NORTH PLATTE   PTSUNNY   93  60  33 S3        29.83F HX  93
6HR MIN TEMP:  91; 6HR MAX TEMP:  97;

IMPERIAL       PTSUNNY   97  50  20 S5        29.86F HX  94
6HR MIN TEMP:  93; 6HR MAX TEMP:  99;

LEXINGTON      CLOUDY    92  58  31 SE7       29.83F HX  91
MCCOOK         MOSUNNY   99  50  19 NW5       29.83F HX  96
6HR MIN TEMP:  94; 6HR MAX TEMP: 101;

OGALLALA       MOSUNNY   95  53  24 CALM      29.87F HX  92
$$

NEZ005>010-023>029-035>040-094-010100-
NORTH CENTRAL NEBRASKA

CITY           SKY/WX    TMP DP  RH WIND       PRES   REMARKS
VALENTINE      PTSUNNY   81  67  62 E12       29.86R
6HR MIN TEMP:  81; 6HR MAX TEMP:  86;

AINSWORTH      CLOUDY    78  68  70 E9        29.86R
BROKEN BOW     PTSUNNY   89  69  51 SE8       29.83F HX  93
6HR MIN TEMP:  89; 6HR MAX TEMP:  92;

O`NEILL        CLOUDY    76  62  61 E14       29.88F
ORD            CLOUDY    80  67  64 E14       29.84S
6HR MIN TEMP:  80; 6HR MAX TEMP:  90;

THEDFORD       MOSUNNY   92  59  32 NW7       29.85F HX  91
$$

NEZ041-046>049-061>064-073>077-083>087-010100-
SOUTH CENTRAL NEBRASKA

CITY           SKY/WX    TMP DP  RH WIND       PRES   REMARKS
GRAND ISLAND   LGT RAIN  83  69  62 SE12      29.84F
6HR MIN TEMP:  82; 6HR MAX TEMP:  92; 6HR PCP: TRACE;

AURORA         LGT RAIN  80  69  70 SE15      29.84F
HASTINGS       CLOUDY    89  64  43 E7        29.83F HX  90
6HR MIN TEMP:  88; 6HR MAX TEMP:  95;

HEBRON         PTSUNNY   87  66  49 E9        29.82F
HOLDREGE       CLOUDY    89  65  45 SE5       29.84S HX  91
KEARNEY *      CLOUDY    88  68  51 SE7       29.82F HX  91
YORK           CLOUDY    79  64  61 SE14      29.85F
$$

NEZ011>018-030>034-042>045-010100-
NORTHEAST NEBRASKA

CITY           SKY/WX    TMP DP  RH WIND       PRES   REMARKS
NORFOLK        PTSUNNY   75  65  70 E8        29.89S
6HR MIN TEMP:  73; 6HR MAX TEMP:  77;

ALBION         CLOUDY    76  59  55 E7        29.89R
BLAIR          CLOUDY    73  64  73 E3        29.88S
COLUMBUS *     CLOUDY   N/A N/A N/A MISG        N/A
FREMONT        CLOUDY    77  64  63 E5        29.89S
TEKAMAH        CLOUDY    74  68  81 CALM      29.88S
6HR MIN TEMP:  73; 6HR MAX TEMP:  76; 6HR PCP:  0.02;

WAYNE          CLOUDY    72  68  86 E6        29.90F
$$

NEZ050>053-065>068-078-088>093-010100-
SOUTHEAST NEBRASKA

CITY           SKY/WX    TMP DP  RH WIND       PRES   REMARKS
LINCOLN        CLOUDY    79  63  57 E9        29.87F HAZE
6HR MIN TEMP:  79; 6HR MAX TEMP:  89;

OMAHA EPPLEY   CLOUDY    75  65  70 E3        29.88S
6HR MIN TEMP:  74; 6HR MAX TEMP:  78; 6HR PCP: TRACE;

BEATRICE       PTSUNNY   81  63  53 E10       29.85F
FALLS CITY     CLOUDY    79  69  71 E7        29.86F
6HR MIN TEMP:  79; 6HR MAX TEMP:  83;

NEBRASKA CITY  CLOUDY    76  60  57 E8        29.87F
PLATTSMOUTH    CLOUDY    75  63  65 E6        29.88F
$$

NEZ044-045-051>053-067-010100-
OMAHA AREA

CITY           SKY/WX    TMP DP  RH WIND       PRES   REMARKS
OMAHA EPPLEY   CLOUDY    75  65  70 E3        29.88S
6HR MIN TEMP:  74; 6HR MAX TEMP:  78; 6HR PCP: TRACE;

BLAIR          CLOUDY    73  64  73 E3        29.88S
FREMONT        CLOUDY    77  64  63 E5        29.89S
MILLARD        CLOUDY    76  65  70 CALM      29.87S
OFFUTT AFB     CLOUDY    74  66  75 E3        29.87F
PLATTSMOUTH    CLOUDY    75  63  65 E6        29.88F
WAHOO          FAIR      76  65  66 E6        29.87F
$$



USA.gov is the U.S. government's official web portal to all federal, state and local government web resources and services.